#timestamp,LO_Frequency,Hit,StdDev 
1652752815.2,286047001.8,N
1652752835.9,286047003.5,N
1652752855.7,286047005.2,N
1652752875.6,286047004.1,N
1652752895.4,286047003.9,N
1652752915.2,286047004.7,N
1652752935.1,286047005.0,N
1652752936.0,286047004.6,N
1652752955.8,286047004.1,N
1652752975.7,286047004.8,N
1652752995.5,286047006.6,N
1652753015.3,286047009.3,N
1652753035.2,286047013.7,Y
1652753055.0,286047009.9,P
1652753055.9,286047010.3,N
1652753075.8,286047007.9,N
1652753095.6,286047011.9,Y
1652753115.4,286047003.7,P
1652753135.3,286047005.4,N
1652753155.1,286047006.4,P
1652753175.8,286047007.5,Y
1652753195.7,286046996.2,P
1652753215.5,286046997.0,N
1652753235.4,286047000.8,N
1652753255.2,286047000.9,N
1652753275.0,286046999.4,N
1652753275.9,286046999.2,N
1652753295.8,286046997.5,N
1652753315.6,286046993.4,N
1652753335.4,286046990.9,N
1652753355.3,286046994.4,N
1652753375.1,286046995.9,N
1652753395.9,286046995.8,N
1652753415.7,286047000.4,N
1652753435.5,286047000.6,N
1652753455.4,286046997.0,N
1652753475.2,286046993.9,N
1652753495.0,286046996.2,N
1652753495.9,286046996.5,N
1652753515.8,286047002.6,N
1652753535.6,286047000.3,N
1652753555.5,286047002.8,N
1652753575.3,286046997.7,N
1652753595.1,286046999.2,N
1652753615.9,286046996.6,N
1652753635.7,286047002.7,N
1652753655.6,286047002.5,N
1652753675.4,286047004.3,N
1652753695.2,286047003.1,N
1652753715.1,286047005.6,N
1652753716.0,286047003.0,N
1652753735.8,286047004.8,N
1652753755.7,286047004.6,N
1652753775.5,286047003.8,N
1652753795.3,286047000.0,N
1652753815.2,286047002.6,N
1652753835.0,286047001.8,N
1652753835.9,286047001.9,N
1652753855.7,286047004.3,N
1652753875.6,286047003.5,N
1652753895.4,286047005.9,N
1652753915.3,286047004.2,N
1652753935.1,286047004.4,N
1652753936.0,286047005.5,N
1652753955.8,286047003.0,N
1652753975.7,286047004.3,N
1652753995.5,286047007.1,N
1652754015.3,286047008.2,N
1652754035.2,286047007.1,N
1652754055.0,286047004.6,N
1652754055.9,286047005.0,N
1652754075.8,286047006.9,N
1652754095.6,286047005.6,N
1652754115.4,286047002.9,N
1652754135.3,286047006.4,N
1652754155.1,286047007.6,Y
1652754175.9,286047002.3,P
1652754195.7,286047004.5,P
1652754215.5,286047003.5,P
1652754235.4,286047004.0,Y
1652754255.2,286046995.7,P
1652754275.0,286046993.5,N
1652754275.9,286046994.5,N
1652754295.8,286046993.5,N
1652754315.6,286046998.7,N
1652754335.5,286047000.0,N
1652754355.3,286046993.9,N
1652754375.1,286046996.4,N
1652754395.9,286046995.3,N
1652754415.7,286046994.6,N
1652754435.5,286046991.7,N
1652754455.4,286046991.0,N
1652754475.2,286046990.1,N
1652754495.1,286046990.1,N
1652754496.0,286046993.5,N
1652754515.8,286046996.2,N
1652754535.6,286046998.0,N
1652754555.5,286046995.0,N
1652754575.3,286046997.3,N
1652754595.2,286046992.8,N
1652754615.9,286046989.2,Y
1652754635.7,286046997.4,P
1652754655.6,286047000.2,N
1652754675.4,286047000.4,N
1652754695.3,286046996.4,N
1652754715.1,286046994.0,N
1652754716.0,286046995.0,N
1652754735.8,286046994.5,N
1652754755.7,286046987.1,Y
1652754775.5,286046990.4,P
1652754795.4,286046993.2,N
1652754815.2,286046986.0,P
1652754835.0,286046982.9,Y
1652754835.9,286046982.0,P
1652754855.8,286046993.7,N
1652754875.6,286047000.9,N
1652754895.5,286046996.0,N
1652754915.3,286046990.3,N
1652754935.1,286046992.0,N
1652754955.9,286046994.3,N
1652754975.7,286046997.1,N
1652754995.5,286046999.7,N
1652755015.4,286047000.8,N
1652755035.2,286046996.8,N
1652755055.1,286046998.2,N
1652755056.0,286046998.7,N
1652755075.8,286046992.2,N
1652755095.6,286046996.4,N
1652755115.5,286047002.1,N
1652755135.3,286047008.1,N
1652755155.2,286047007.9,N
1652755175.9,286047005.2,N
1652755195.7,286047006.2,N
1652755215.6,286047003.3,N
1652755235.4,286046998.2,N
1652755255.2,286047000.9,N
1652755275.1,286046999.0,N
1652755276.0,286047000.9,N
1652755295.8,286047003.5,N
1652755315.7,286047002.0,N
1652755335.5,286046997.1,N
1652755355.3,286046995.3,N
1652755375.2,286046994.9,N
1652755395.0,286046997.7,N
1652755395.9,286046994.9,N
1652755415.7,286046998.0,N
1652755435.6,286046997.6,N
1652755455.4,286046996.4,N
1652755475.3,286046995.6,N
1652755495.1,286046998.0,N
1652755496.0,286046999.4,N
1652755515.8,286047004.2,N
1652755535.7,286047003.9,N
1652755555.5,286046999.6,N
1652755575.4,286046997.3,N
1652755595.2,286046997.9,N
1652755615.0,286046996.2,N
1652755615.9,286046993.4,N
1652755635.8,286046998.9,N
1652755655.6,286046995.6,N
1652755675.4,286046995.9,N
1652755695.3,286046996.1,N
1652755715.1,286046992.8,N
1652755735.9,286046989.1,Y
1652755755.7,286046996.7,P
1652755775.5,286047001.4,N
1652755795.4,286047003.0,N
1652755815.2,286046998.8,N
1652755835.0,286046995.6,N
1652755835.9,286046994.5,N
1652755855.8,286046989.7,Y
1652755875.6,286046991.6,P
1652755895.5,286046992.5,N
1652755915.3,286046997.9,N
1652755935.1,286046997.1,N
1652755955.9,286047001.6,N
1652755975.7,286047005.5,N
1652755995.5,286047009.0,N
1652756015.4,286047011.8,N
1652756035.2,286047007.9,N
1652756055.1,286047008.9,N
1652756056.0,286047009.2,N
1652756075.8,286047008.7,N
1652756095.6,286047008.0,N
1652756115.5,286047007.5,N
1652756135.3,286047007.4,N
1652756155.1,286047005.4,N
1652756175.9,286047006.4,N
1652756195.7,286047000.5,N
1652756215.6,286047000.0,N
1652756235.4,286047004.4,N
1652756255.2,286047003.5,N
1652756275.1,286047005.5,N
1652756276.0,286047007.2,N
1652756295.8,286047011.9,N
1652756315.6,286047014.9,N
1652756335.5,286047013.2,N
1652756355.3,286047010.3,N
1652756375.2,286047009.3,N
1652756395.9,286047011.3,N
